Weather History for KIWI - December, 2013

Change the Weather History Date:

Monday, December 16, 2013

  Actual Average Record
Temperature  
Mean Temperature 12 °F -  
Max Temperature 25 °F 36 °F 53 °F (2008)
Min Temperature -2 °F 18 °F -2 °F (2013)
Degree Days  
Heating Degree Days 54    
Moisture  
Dew Point -2 °F    
Average Humidity 59    
Maximum Humidity 88    
Minimum Humidity 33    
Precipitation  
Precipitation 0.00 in - - ()
Sea Level Pressure  
Sea Level Pressure 29.92 in    
Wind  
Wind Speed 2 mph (WNW)    
Max Wind Speed 7 mph    
Max Gust Speed 17 mph    
Visibility 10 miles    
Events      
Averages and records for this station are not official NWS values.
T = Trace of Precipitation, MM = Missing Value Source: NWS Daily Summary

Daily Weather History Graph

Daily Weather History Graph

Search for Another Location

Airport or City:

Trip Planner

Search our weather history database for the weather conditions in past years. The results will help you decide how hot, cold, wet, or windy it might be!

Date:

Astronomy

Dec. 16, 2013 Rise Set
Actual Time 7:07 AM EST 4:01 PM EST
Civil Twilight 6:34 AM EST 4:34 PM EST
Nautical Twilight 5:57 AM EST 5:11 PM EST
Astronomical Twilight 5:22 AM EST 5:46 PM EST
Moon 3:51 PM EST (12/16) 6:10 AM EST (12/16)
Length of Visible Light 10h 00m
Length of Day
8h 54m
Full, 100% of the Moon is Illuminated
Dec 16
Full
Dec 17
Full
Dec 25
Last Quarter
Jan 1
New
Jan 7
First Quarter

Hourly Weather History & Observations

Time (EST) Temp. Windchill Dew Point Humidity Pressure Visibility Wind Dir Wind Speed Gust Speed Precip Events Conditions
12:53 AM 7.0 °F - 1.9 °F 80% 29.68 in 10.0 mi Calm Calm - N/A   Clear
1:53 AM 3.0 °F - -0.9 °F 84% 29.70 in 10.0 mi Calm Calm - N/A   Clear
2:53 AM 1.0 °F - -4.0 °F 79% 29.71 in 10.0 mi Calm Calm - N/A   Clear
3:53 AM -0.0 °F - -6.0 °F 76% 29.73 in 10.0 mi Calm Calm - N/A   Clear
4:53 AM -0.9 °F - -7.1 °F 75% 29.73 in 10.0 mi Calm Calm - N/A   Clear
5:53 AM -2.9 °F - -8.0 °F 79% 29.76 in 10.0 mi Calm Calm - N/A   Clear
6:53 AM -2.0 °F - -7.1 °F 79% 29.78 in 8.0 mi Calm Calm - N/A   Clear
7:53 AM -0.0 °F - -2.9 °F 88% 29.81 in 10.0 mi Calm Calm - N/A   Clear
8:53 AM 12.9 °F 6.9 °F 9.0 °F 84% 29.85 in 10.0 mi West 3.5 mph - N/A   Clear
9:53 AM 21.0 °F 13.4 °F 12.0 °F 68% 29.88 in 10.0 mi WNW 5.8 mph - N/A   Clear
10:53 AM 23.0 °F 15.8 °F 7.0 °F 50% 29.88 in 10.0 mi Variable 5.8 mph 17.3 mph N/A   Clear
11:53 AM 24.1 °F 17.0 °F 6.1 °F 46% 29.88 in 10.0 mi Variable 5.8 mph - N/A   Clear
12:53 PM 25.0 °F 17.1 °F 1.9 °F 37% 29.87 in 10.0 mi Variable 6.9 mph - N/A   Clear
1:53 PM 25.0 °F 19.3 °F 1.0 °F 36% 29.88 in 10.0 mi Variable 4.6 mph 17.3 mph N/A   Partly Cloudy
2:53 PM 24.1 °F 17.0 °F -0.0 °F 35% 29.91 in 10.0 mi Variable 5.8 mph - N/A   Scattered Clouds
3:53 PM 21.0 °F 13.4 °F -4.0 °F 33% 29.96 in 10.0 mi WNW 5.8 mph - N/A   Clear
4:53 PM 18.0 °F 11.1 °F -2.0 °F 41% 30.00 in 10.0 mi Variable 4.6 mph - N/A   Clear
5:53 PM 16.0 °F - -2.9 °F 43% 30.03 in 10.0 mi Calm Calm - N/A   Clear
6:53 PM 14.0 °F 8.2 °F -2.9 °F 47% 30.08 in 10.0 mi Variable 3.5 mph - N/A   Clear
7:53 PM 12.9 °F 6.9 °F -4.0 °F 47% 30.11 in 10.0 mi Variable 3.5 mph - N/A   Clear
8:53 PM 10.0 °F 3.6 °F -5.1 °F 51% 30.15 in 10.0 mi Variable 3.5 mph - N/A   Clear
9:53 PM 8.1 °F 1.4 °F -6.0 °F 53% 30.19 in 10.0 mi Variable 3.5 mph - N/A   Clear
10:53 PM 5.0 °F -2.1 °F -7.1 °F 58% 30.22 in 10.0 mi Variable 3.5 mph - N/A   Clear
11:53 PM 3.9 °F -3.4 °F -9.9 °F 53% 30.21 in 10.0 mi NNW 3.5 mph - N/A   Clear